This demonstration page uses our WeatherBlox Daily Observations layout. Learn more.

Left ArrowRight Arrow

34.02893, -84.19858

Hourly Observations for August 24, 2022

Temp ( °F °C ) Dew Point ( °F °C ) Humidity (%) Winds ( mph kmh ) Pressure ( in mb ) Visibility ( mi km ) Precip ( " mm )
12:53 am 00:53 Cloudy 75 23.9 71 21.7 88 88 Calm 29.96 1015 10 16 0.00 0.00
1:53 am 01:53 Cloudy 75 23.9 70 21.1 84 84 NW 3 6 29.96 1014 10 16 0.00 0.00
2:53 am 02:53 Cloudy 75 23.9 70 21.1 84 84 Calm 29.94 1014 10 16 0.00 0.00
3:53 am 03:53 Cloudy 74 23.3 70 21.1 87 87 WNW 3 6 29.94 1014 10 16 0.00 0.00
4:53 am 04:53 Cloudy 74 23.3 70 21.1 87 87 Calm 29.95 1014 10 16 0.00 0.00
5:53 am 05:53 Cloudy 74 23.3 70 21.1 87 87 NNW 5 7 29.95 1014 10 16 0.00 0.00
6:53 am 06:53 Cloudy 73 22.8 70 21.1 90 90 Calm 29.96 1015 10 16 0.00 0.00
7:53 am 07:53 Cloudy 74 23.3 70 21.1 87 87 Calm 29.99 1016 10 16 0.00 0.00
8:53 am 08:53 Cloudy 75 23.9 71 21.7 88 88 Calm 30.01 1016 10 16 0.00 0.00
9:53 am 09:53 Cloudy 76 24.4 71 21.7 85 85 Calm 30.01 1016 10 16 0.00 0.00
10:53 am 10:53 Cloudy 78 25.6 71 21.7 79 79 Calm 30.01 1016 10 16 0.00 0.00
11:53 am 11:53 Mostly Cloudy 81 27.2 71 21.7 72 72 Calm 30.02 1017 10 16 0.00 0.00
12:53 pm 12:53 Partly Cloudy 83 28.3 69 20.6 63 63 SSW 3 6 30.01 1016 10 16 0.00 0.00
1:53 pm 13:53 Mostly Sunny 83 28.3 68 20 61 61 VRB 6 9 30.00 1016 10 16 0.00 0.00
2:53 pm 14:53 Mostly Cloudy 85 29.4 66 18.9 53 53 Calm 29.98 1015 10 16 0.00 0.00
3:53 pm 15:53 Cloudy 78 25.6 69 20.6 74 74 SE 6 9 29.98 1015 10 16 0.00 0.00
4:53 pm 16:53 Cloudy 77 25 68 20 74 74 S 3 6 29.97 1015 10 16 0.00 0.00
5:53 pm 17:53 Sunny 79 26.1 68 20 69 69 SSW 7 11 29.98 1015 10 16 0.00 0.00
6:53 pm 18:53 Sunny 78 25.6 70 21.1 76 76 Calm 29.99 1016 10 16 0.00 0.00
7:53 pm 19:53 Cloudy 75 23.9 68 20 79 79 S 7 11 30.01 1016 10 16 0.00 0.00
8:53 pm 20:53 Clear 74 23.3 70 21.1 87 87 Calm 30.01 1016 10 16 0.00 0.00
9:53 pm 21:53 Mostly Cloudy 73 22.8 71 21.7 94 94 Calm 30.01 1016 10 16 0.00 0.00
10:53 pm 22:53 Cloudy 74 23.3 69 20.6 85 85 SSW 6 9 30.03 1017 10 16 0.00 0.00
11:53 pm 23:53 Cloudy 73 22.8 70 21.1 90 90 Calm 30.03 1017 10 16 0.00 0.00

Powered by AerisWeather